When you browse on this site, cookies collect data to enhance your experience and personalize the content and advertising you see.
Visit our Privacy Policy to learn more. By continuing to use the site, you agree to this use of cookies and data.
  • In Hungary
  • List of Countries
  • For 7 days
  • Water Temperature
  • Satellite Maps
  • Weather Map
  • News
  • Weather Widgets
  • user-avatar
    Login

    Hourly Weather Niskonicy

    Today, 20 January, Sunday

    Time Temperature Precipitation Wind Pressure Humidity
    00:00 -9°C° 0 mm 4 mps 737 mmHg 90%
    01:00 -9°C° 0 mm 4 mps 736 mmHg 89%
    02:00 -8°C° 0 mm 4 mps 736 mmHg 88%
    03:00 -8°C° 0.1 mm 5 mps 736 mmHg 88%
    04:00 -8°C° 0.1 mm 5 mps 735 mmHg 88%
    05:00 -9°C° 0.1 mm 6 mps 735 mmHg 88%
    06:00 -9°C° 0.2 mm 6 mps 734 mmHg 87%
    07:00 -9°C° 0.2 mm 6 mps 734 mmHg 87%
    08:00 -8°C° 0 mm 6 mps 733 mmHg 86%
    09:00 -8°C° 0.1 mm 6 mps 733 mmHg 85%
    10:00 -7°C° 0.1 mm 7 mps 733 mmHg 85%
    11:00 -7°C° 0.1 mm 7 mps 733 mmHg 84%
    12:00 -6°C° 0.4 mm 6 mps 733 mmHg 84%
    13:00 -5°C° 0.4 mm 6 mps 732 mmHg 84%
    14:00 -5°C° 0.4 mm 5 mps 732 mmHg 84%
    15:00 -6°C° 0.1 mm 5 mps 732 mmHg 84%
    16:00 -7°C° 0.1 mm 5 mps 732 mmHg 84%
    17:00 -8°C° 0.1 mm 4 mps 732 mmHg 84%
    18:00 -9°C° 0 mm 4 mps 732 mmHg 85%
    19:00 -9°C° 0 mm 4 mps 732 mmHg 87%
    20:00 -10°C° 0 mm 4 mps 732 mmHg 89%
    21:00 -10°C° 0 mm 4 mps 733 mmHg 90%
    22:00 -10°C° 0 mm 3 mps 733 mmHg 92%
    23:00 -12°C° 0 mm 3 mps 734 mmHg 93%

    Tomorrow, 21 January, Monday

    Time Temperature Precipitation Wind Pressure Humidity
    00:00 -12°C° 0 mm 3 mps 734 mmHg 93%
    01:00 -12°C° 0 mm 3 mps 734 mmHg 92%
    02:00 -12°C° 0 mm 3 mps 735 mmHg 91%
    03:00 -10°C° 0 mm 2 mps 735 mmHg 92%
    04:00 -10°C° 0 mm 2 mps 735 mmHg 92%
    05:00 -12°C° 0 mm 2 mps 735 mmHg 92%
    06:00 -12°C° 0 mm 2 mps 735 mmHg 93%
    07:00 -13°C° 0 mm 2 mps 735 mmHg 94%
    08:00 -14°C° 0 mm 2 mps 735 mmHg 95%
    09:00 -14°C° 0 mm 3 mps 735 mmHg 93%
    10:00 -14°C° 0 mm 3 mps 735 mmHg 92%
    11:00 -14°C° 0 mm 3 mps 735 mmHg 90%
    12:00 -14°C° 0.1 mm 3 mps 736 mmHg 89%
    13:00 -14°C° 0.1 mm 3 mps 736 mmHg 88%
    14:00 -14°C° 0.1 mm 3 mps 736 mmHg 86%
    15:00 -15°C° 0 mm 3 mps 736 mmHg 88%
    16:00 -16°C° 0 mm 3 mps 737 mmHg 91%
    17:00 -16°C° 0 mm 2 mps 737 mmHg 93%
    18:00 -17°C° 0 mm 2 mps 737 mmHg 94%
    19:00 -19°C° 0 mm 2 mps 737 mmHg 95%
    20:00 -20°C° 0 mm 2 mps 738 mmHg 96%
    21:00 -20°C° 0 mm 2 mps 738 mmHg 97%
    22:00 -21°C° 0 mm 2 mps 738 mmHg 97%
    23:00 -21°C° 0 mm 2 mps 739 mmHg 97%

    Day after tomorrow, 22 January, Tuesday

    Time Temperature Precipitation Wind Pressure Humidity
    00:00 -21°C° 0 mm 2 mps 739 mmHg 97%
    01:00 -23°C° 0 mm 3 mps 739 mmHg 97%
    02:00 -23°C° 0 mm 3 mps 740 mmHg 97%
    03:00 -23°C° 0 mm 2 mps 740 mmHg 97%
    04:00 -23°C° 0 mm 2 mps 740 mmHg 98%
    05:00 -24°C° 0 mm 2 mps 740 mmHg 98%
    06:00 -24°C° 0 mm 2 mps 740 mmHg 98%
    07:00 -24°C° 0 mm 2 mps 741 mmHg 98%
    08:00 -24°C° 0 mm 2 mps 741 mmHg 98%
    09:00 -23°C° 0 mm 2 mps 741 mmHg 97%
    10:00 -20°C° 0 mm 2 mps 742 mmHg 96%
    11:00 -19°C° 0 mm 2 mps 742 mmHg 95%
    12:00 -18°C° 0 mm 2 mps 742 mmHg 95%
    13:00 -17°C° 0 mm 2 mps 742 mmHg 95%
    14:00 -17°C° 0 mm 2 mps 742 mmHg 95%
    15:00 -18°C° 0 mm 2 mps 742 mmHg 96%
    16:00 -19°C° 0 mm 2 mps 742 mmHg 97%
    17:00 -21°C° 0 mm 2 mps 742 mmHg 98%
    18:00 -21°C° 0 mm 2 mps 742 mmHg 98%
    19:00 -21°C° 0 mm 2 mps 742 mmHg 98%
    20:00 -23°C° 0 mm 2 mps 742 mmHg 98%
    21:00 -21°C° 0 mm 2 mps 742 mmHg 98%
    22:00 -21°C° 0 mm 2 mps 742 mmHg 98%
    23:00 -20°C° 0 mm 2 mps 742 mmHg 98%

    23 January, Wednesday

    Time Temperature Precipitation Wind Pressure Humidity
    00:00 -19°C° 0 mm 2 mps 742 mmHg 98%
    01:00 -17°C° 0 mm 2 mps 742 mmHg 97%
    02:00 -15°C° 0 mm 2 mps 742 mmHg 96%
    03:00 -15°C° 0 mm 2 mps 741 mmHg 96%
    04:00 -14°C° 0 mm 2 mps 741 mmHg 96%
    05:00 -14°C° 0 mm 2 mps 741 mmHg 96%
    06:00 -13°C° 0 mm 2 mps 741 mmHg 96%
    07:00 -14°C° 0 mm 3 mps 741 mmHg 95%
    08:00 -14°C° 0 mm 3 mps 741 mmHg 95%
    09:00 -12°C° 0.1 mm 3 mps 741 mmHg 94%
    10:00 -10°C° 0.1 mm 3 mps 741 mmHg 93%
    11:00 -10°C° 0.1 mm 4 mps 741 mmHg 93%
    12:00 -10°C° 0 mm 4 mps 741 mmHg 92%
    13:00 -10°C° 0 mm 4 mps 741 mmHg 92%
    14:00 -10°C° 0 mm 4 mps 741 mmHg 91%
    15:00 -10°C° 0 mm 3 mps 741 mmHg 92%
    16:00 -13°C° 0 mm 3 mps 741 mmHg 93%
    17:00 -14°C° 0 mm 3 mps 741 mmHg 94%
    18:00 -15°C° 0 mm 3 mps 741 mmHg 94%
    19:00 -16°C° 0 mm 3 mps 741 mmHg 95%
    20:00 -16°C° 0 mm 3 mps 741 mmHg 95%
    21:00 -16°C° 0 mm 3 mps 742 mmHg 95%
    22:00 -16°C° 0 mm 3 mps 742 mmHg 95%
    23:00 -17°C° 0 mm 3 mps 742 mmHg 95%

    24 January, Thursday

    Time Temperature Precipitation Wind Pressure Humidity
    00:00 -17°C° 0 mm 3 mps 742 mmHg 94%
    01:00 -17°C° 0 mm 3 mps 742 mmHg 93%
    02:00 -18°C° 0 mm 3 mps 742 mmHg 92%
    03:00 -18°C° 0 mm 3 mps 742 mmHg 92%
    04:00 -17°C° 0 mm 2 mps 742 mmHg 92%
    05:00 -17°C° 0 mm 2 mps 741 mmHg 93%
    06:00 -17°C° 0 mm 2 mps 741 mmHg 93%
    07:00 -17°C° 0 mm 2 mps 741 mmHg 92%
    08:00 -17°C° 0 mm 2 mps 742 mmHg 92%
    09:00 -16°C° 0 mm 2 mps 742 mmHg 93%
    10:00 -13°C° 0 mm 1 mps 742 mmHg 93%
    11:00 -11°C° 0 mm 1 mps 742 mmHg 93%
    12:00 -11°C° 0.1 mm 1 mps 742 mmHg 94%
    13:00 -10°C° 0.1 mm 1 mps 742 mmHg 94%
    14:00 -9°C° 0.1 mm 1 mps 742 mmHg 94%
    15:00 -10°C° 0 mm 1 mps 742 mmHg 95%
    16:00 -10°C° 0 mm 1 mps 742 mmHg 96%
    17:00 -10°C° 0 mm 1 mps 742 mmHg 97%
    18:00 -10°C° 0 mm 1 mps 742 mmHg 97%
    19:00 -10°C° 0 mm 1 mps 742 mmHg 97%
    20:00 -12°C° 0 mm 2 mps 742 mmHg 97%
    21:00 -12°C° 0.1 mm 2 mps 742 mmHg 97%
    22:00 -12°C° 0.1 mm 2 mps 742 mmHg 97%
    23:00 -12°C° 0.1 mm 2 mps 742 mmHg 96%

    25 January, Friday

    Time Temperature Precipitation Wind Pressure Humidity
    00:00 -12°C° 0.2 mm 2 mps 742 mmHg 96%
    01:00 -13°C° 0.2 mm 3 mps 742 mmHg 96%
    02:00 -14°C° 0.2 mm 3 mps 742 mmHg 96%
    03:00 -14°C° 0.3 mm 3 mps 742 mmHg 95%
    04:00 -14°C° 0.3 mm 3 mps 742 mmHg 95%
    05:00 -14°C° 0.3 mm 3 mps 742 mmHg 95%
    06:00 -14°C° 0.3 mm 3 mps 742 mmHg 95%
    07:00 -14°C° 0.3 mm 3 mps 742 mmHg 95%
    08:00 -14°C° 0.3 mm 3 mps 742 mmHg 94%
    09:00 -14°C° 0.2 mm 3 mps 742 mmHg 94%
    10:00 -14°C° 0.2 mm 3 mps 742 mmHg 94%
    11:00 -14°C° 0.2 mm 3 mps 742 mmHg 94%
    12:00 -14°C° 0.3 mm 3 mps 742 mmHg 94%
    13:00 -14°C° 0.3 mm 3 mps 742 mmHg 95%
    14:00 -14°C° 0.3 mm 3 mps 742 mmHg 95%
    15:00 -14°C° 0.3 mm 3 mps 742 mmHg 95%
    16:00 -14°C° 0.3 mm 3 mps 742 mmHg 95%
    17:00 -14°C° 0.3 mm 3 mps 742 mmHg 95%
    18:00 -14°C° 0.4 mm 3 mps 742 mmHg 95%
    19:00 -14°C° 0.4 mm 3 mps 742 mmHg 95%
    20:00 -15°C° 0.4 mm 3 mps 742 mmHg 95%
    21:00 -15°C° 0.3 mm 3 mps 741 mmHg 95%
    22:00 -15°C° 0.3 mm 3 mps 741 mmHg 95%
    23:00 -15°C° 0.3 mm 3 mps 741 mmHg 95%
    Show more